User: anonymous   Login
Location: Oberkirch
(48.5323°N, 8.0787°E)
Time: 06:38:37
(UTC+00:00)
Language:

VELOX 1 - Orbit

View from above orbital plane
View from above orbital plane
View from above satellite
View from above satellite

Ground track
Ground track

The orbit is defined by the following mean orbital elements,

1 40057U          26069.96219203 +.00000000 +00000-0 +50052-3 0 00009
2 40057  98.2621 329.4299 0006170 234.1944 125.8703 14.96882452    00
Epoch (UTC): 10 March 2026 23:05:33
Eccentricity: 0.0006170
inclination: 98.2621°
perigee height: 572 km
apogee height: 581 km
right ascension of ascending node: 329.4299°
argument of perigee: 234.1944°
revolutions per day: 14.96882452
mean anomaly at epoch: 125.8703°

The dashed part of the orbit path shows where the satellite is in the earth's shadow,  

DLR